METAR Formatted Surface Weather Observation
Issued by NWS

Home | Current Version | Previous Version | Text Only | Print | Product List | Glossary On
Versions: 1 2 3 4 5 6 7 8 9 10 11 12 13 14 15 16 17 18 19 20 21 22 23 24 25 26 27 28 29 30 31 32 33 34 35 36 37 38 39 40 41 42 43 44 45 46 47 48 49 50
848
SAUS46 KPDT 202358
MTRMEH
METAR KMEH 202356Z AUTO 10005KT 3SM -SN BKN033 OVC042 M06/M11 A3001
RMK AO2 SNB49 SLP224 P0000 60000 T10611111 11050 21094 55004



USA.gov is the U.S. government's official web portal to all federal, state and local government web resources and services.